Location: Carbonear
(47.7333°N, 53.2500°W)
Time: 21:16:23
(UTC+00:00)

AO-27 - Pass Details

Date: 11 December 2022
Orbit: 784 x 798 km, 98.9° (Epoch: 04 February)

Event Time Altitude Azimuth Distance (km) Brightness Sun altitude
Exits shadow 22:42:06 19° 352° (N) 1,854 9.6 -29.4°
Drops below altitude 10° 22:43:28 10° 350° (N) 2,382 10.2 -29.6°
Sets 22:45:49 0° 348° (NNW) 3,317 11.0 -30.0°
